Вернуться в каталог

COSMOS 2143 DEB

АктивенPO
NORAD 57722·DEBRIS·🇷🇺 Russia

Запущен May 16, 1991 с Plesetsk Cosmodrome

Loading…

Ближайшие Пролёты (ближайшие 24 часа)

TLE

СвежийSource: Space-Track

Эпоха: Sep 14, 2026, 10:08 UTC

1 57722U 91033K   26257.42282618  .00000085  00000-0  39438-3 0  9997
2 57722  82.5812 243.0722 0002559 138.9929 221.1357 12.66642435146127

Отслеживайте COSMOS 2143 DEB в реальном времени с AllMySat

Download on the App Store